Kuiper-00060

operational
NORAD ID: 64520 Int'l Des: 2025-134 Owner: KUIP Country: US Constellation: kuiper
LEOCIRCULAR

About Kuiper-00060

Description loading...

Live Position

Loading 3D Globe...

Upcoming Passes

Altitude History

Altitude vs Time

uPlot chart will show altitude changes over time

Two-Line Element Set

1 64520U 25134W 25338.55768608 .00009910 00000-0 13262-2 0 9993
2 64520 51.9038 282.2693 0002846 55.9884 304.1349 14.79960194 26132
Epoch: Dec 4, 2025 • Age: 12 hours

Current Status

Altitude 636.3 km
Velocity 7.54 km/s
Sub-Earth Point -19.34°S, 17.03°E
Launch Date Jun 23, 2025
Age 0.4 years
Type internet

Technical Details

Classification Payload
Mass 490.00 kg
Dry Mass 490.00 kg
Total Mass 490.00 kg
Length 1.80 m
Diameter 0.70 m
Span 5.00 m
Shape Box + 2 pan
Manufacturer KUIP
Bus Type Kuiper
Phase Status In Orbit
Owner/State KUIP/US

Large Constellations

Loading constellations...